Volver al catálogo

COSMOS 903 DEB

LostHEO
NORAD 32963·DEBRIS·🇷🇺 Russia

Lanzado Apr 11, 1977 desde Plesetsk Cosmodrome

Loading…

Próximos Pases (próximas 24 horas)

TLE

ObsoletoSource: Space-Track

Época: Jun 21, 2013, 00:06 UTC

1 32963U 77027J   13172.00418395  .00000000  00000-0  10000-3 0  9994
2 32963 068.8093 188.5165 5972908 028.3524 354.1820 02.03272956   107

Sigue COSMOS 903 DEB en tiempo real con AllMySat

Download on the App Store